Allentown, PA

6:02 PM EST on February 19, 2018 (GMT -0500)
Lehigh Valley International

Weather History for KABE - October, 2011

Change the Weather History Date:

Thursday, October 20, 2011

  Actual Average Record
Temperature  
Mean Temperature 61 °F 51 °F  
Max Temperature 69 °F 62 °F 78 °F (1936)
Min Temperature 52 °F 40 °F 24 °F (1972)
Degree Days  
Heating Degree Days 4 14  
Month to date heating degree days 136 222  
Since 1 July heating degree days 187 337  
Cooling Degree Days 0 0  
Month to date cooling degree days 2 3  
Year to date cooling degree days 1075 753  
Growing Degree Days 12 (Base 50)    
Moisture  
Dew Point 51 °F    
Average Humidity 77    
Maximum Humidity 100    
Minimum Humidity 54    
Precipitation  
Precipitation 0.01 in 0.12 in 1.65 in (1976)
Month to date precipitation 2.73 2.67  
Year to date precipitation 60.87 37.06  
Snow  
Snow 0.00 in 0.00 in 0.50 in (1940)
Month to date snowfall 0.0 0.0  
Since 1 July snowfall 0.0 0.0  
Since 1 September snowfall 0.0 0.0  
Snow Depth 0.00 in    
Sea Level Pressure  
Sea Level Pressure 29.44 in    
Wind  
Wind Speed 13 mph (SW)    
Max Wind Speed 22 mph    
Max Gust Speed 30 mph    
Visibility 10 miles    
Events Rain    
T = Trace of Precipitation, MM = Missing Value Source: NWS Daily Summary

Daily Weather History Graph

Daily Weather History Graph

Search for Another Location

Airport or City:

Trip Planner

Search our weather history database for the weather conditions in past years. The results will help you decide how hot, cold, wet, or windy it might be!

Date:

Astronomy

Oct. 20, 2011 Rise Set
Actual Time 7:17 AM EDT 6:14 PM EDT
Civil Twilight 6:50 AM EDT 6:42 PM EDT
Nautical Twilight 6:18 AM EDT 7:14 PM EDT
Astronomical Twilight 5:46 AM EDT 7:45 PM EDT
Moon No Moon Rise 2:24 PM EDT (10/20)
Length of Visible Light 11h 52m
Length of Day
10h 56m
Last Quarter, 44% of the Moon is Illuminated
Oct 20
Last Quarter
Oct 26
New
Nov 2
First Quarter
Nov 10
Full
Nov 18
Last Quarter

Hourly Weather History & Observations

Time (EDT) Temp. Dew Point Humidity Pressure Visibility Wind Dir Wind Speed Gust Speed Precip Events Conditions
12:51 AM 63.0 °F 61.0 °F 93% 29.32 in 10.0 mi East 11.5 mph - 0.02 in   Overcast
1:51 AM 64.0 °F 62.1 °F 93% 29.30 in 10.0 mi East 12.7 mph - N/A   Overcast
2:51 AM 63.0 °F 62.1 °F 97% 29.28 in 10.0 mi ENE 8.1 mph - N/A   Overcast
3:37 AM 64.4 °F 64.4 °F 100% 29.28 in 10.0 mi Variable 4.6 mph - N/A   Overcast
3:53 AM 66.2 °F 64.4 °F 94% 29.28 in 10.0 mi SE 5.8 mph - N/A   Overcast
4:20 AM 69.8 °F 64.4 °F 83% 29.27 in 10.0 mi South 8.1 mph - N/A   Overcast
4:51 AM 68.0 °F 64.9 °F 90% 29.27 in 10.0 mi South 5.8 mph - 0.00 in Rain Light Rain
5:22 AM 68.0 °F 62.6 °F 83% 29.29 in 10.0 mi South 9.2 mph 21.9 mph 0.01 in   Scattered Clouds
5:51 AM 66.0 °F 62.1 °F 87% 29.29 in 10.0 mi SSW 8.1 mph - 0.01 in   Partly Cloudy
6:51 AM 64.9 °F 60.1 °F 84% 29.30 in 10.0 mi South 11.5 mph - N/A   Partly Cloudy
7:51 AM 64.0 °F 55.9 °F 75% 29.34 in 10.0 mi SSW 17.3 mph 27.6 mph N/A   Partly Cloudy
8:51 AM 63.0 °F 55.0 °F 75% 29.37 in 10.0 mi SW 15.0 mph 23.0 mph N/A   Mostly Cloudy
9:10 AM 59.0 °F 53.6 °F 82% 29.39 in 10.0 mi WSW 6.9 mph 20.7 mph N/A   Overcast
9:51 AM 57.9 °F 53.1 °F 84% 29.41 in 10.0 mi WSW 10.4 mph - N/A   Mostly Cloudy
10:15 AM 60.8 °F 53.6 °F 77% 29.41 in 10.0 mi WSW 12.7 mph 20.7 mph N/A   Mostly Cloudy
10:40 AM 60.8 °F 53.6 °F 77% 29.42 in 10.0 mi SW 18.4 mph 26.5 mph N/A   Overcast
10:51 AM 61.0 °F 51.1 °F 70% 29.43 in 10.0 mi SSW 15.0 mph 26.5 mph N/A   Overcast
11:22 AM 57.2 °F 46.4 °F 67% 29.46 in 10.0 mi WSW 16.1 mph 28.8 mph N/A   Overcast
11:51 AM 57.0 °F 46.0 °F 67% 29.46 in 10.0 mi SW 11.5 mph 24.2 mph N/A   Overcast
12:03 PM 57.2 °F 44.6 °F 63% 29.47 in 10.0 mi SW 15.0 mph 23.0 mph N/A   Overcast
12:51 PM 57.0 °F 46.0 °F 67% 29.47 in 10.0 mi WSW 17.3 mph - N/A   Overcast
1:51 PM 57.0 °F 48.0 °F 72% 29.47 in 10.0 mi SW 6.9 mph - N/A   Overcast
2:51 PM 60.1 °F 44.1 °F 55% 29.48 in 10.0 mi SSW 16.1 mph 21.9 mph N/A   Overcast
3:51 PM 57.9 °F 42.1 °F 56% 29.51 in 10.0 mi SW 19.6 mph 24.2 mph N/A   Overcast
4:51 PM 57.0 °F 42.1 °F 57% 29.55 in 10.0 mi SW 18.4 mph 29.9 mph N/A   Overcast
5:51 PM 55.9 °F 39.9 °F 55% 29.57 in 10.0 mi SW 16.1 mph 27.6 mph 0.00 in   Mostly Cloudy
6:51 PM 55.9 °F 39.9 °F 55% 29.60 in 10.0 mi SW 13.8 mph 20.7 mph N/A   Overcast
7:51 PM 55.9 °F 39.9 °F 55% 29.63 in 10.0 mi SSW 15.0 mph 23.0 mph N/A   Overcast
8:51 PM 55.9 °F 41.0 °F 57% 29.65 in 10.0 mi SW 13.8 mph 21.9 mph N/A   Overcast
9:51 PM 55.0 °F 41.0 °F 59% 29.67 in 10.0 mi SW 13.8 mph - N/A   Overcast
10:51 PM 54.0 °F 42.1 °F 64% 29.69 in 10.0 mi SW 9.2 mph 20.7 mph N/A   Overcast
11:51 PM 54.0 °F 37.9 °F 55% 29.71 in 10.0 mi WSW 13.8 mph - N/A   Overcast